Weather History for KSAW - August, 2014

Change the Weather History Date:

Friday, August 29, 2014

  Actual Average (KMQT) Record (KMQT)
Temperature  
Mean Temperature 61 °F 62 °F  
Max Temperature 68 °F 72 °F 90 °F (1991)
Min Temperature 54 °F 51 °F 34 °F (1976)
Degree Days  
Heating Degree Days 4 5  
Month to date heating degree days 96  
Since 1 June heating degree days 357  
Since 1 July heating degree days 175  
Cooling Degree Days 0 2  
Month to date cooling degree days 62  
Year to date cooling degree days 216  
Since 1 June cooling degree days 204  
Growing Degree Days 11 (Base 50)    
Moisture  
Dew Point 58 °F    
Average Humidity 93    
Maximum Humidity 100    
Minimum Humidity 88    
Precipitation  
Precipitation 0.00 in 0.10 in 1.64 in (2009)
Month to date precipitation 2.84  
Year to date precipitation 22.16  
Snow  
Snow 0.00 in 0.00 in - ()
Month to date snowfall 0.0  
Since 1 June snowfall 0.0  
Since 1 July snowfall 0.0  
Snow Depth -    
Sea Level Pressure  
Sea Level Pressure 29.95 in    
Wind  
Wind Speed 8 mph (South)    
Max Wind Speed 14 mph    
Max Gust Speed 20 mph    
Visibility 7 miles    
Events Rain , Thunderstorm    
T = Trace of Precipitation, MM = Missing Value Source: NWS Daily Summary

Daily Weather History Graph

Daily Weather History Graph

Search for Another Location

Airport or City:

Trip Planner

Search our weather history database for the weather conditions in past years. The results will help you decide how hot, cold, wet, or windy it might be!

Date:

Astronomy

Aug. 29, 2014 Rise Set
Actual Time 7:06 AM EDT 8:33 PM EDT
Civil Twilight 6:34 AM EDT 9:05 PM EDT
Nautical Twilight 5:56 AM EDT 9:43 PM EDT
Astronomical Twilight 5:15 AM EDT 10:23 PM EDT
Moon 11:10 AM EDT (8/29) 10:14 PM EDT (8/29)
Length of Visible Light 14h 30m
Length of Day
13h 27m
Waxing Crescent, 15% of the Moon is Illuminated
Aug 29
Waxing Crescent
Sep 2
First Quarter
Sep 8
Full
Sep 15
Last Quarter
Sep 24
New

Hourly Weather History & Observations

Time (EDT) Temp. Dew Point Humidity Pressure Visibility Wind Dir Wind Speed Gust Speed Precip Events Conditions
12:16 AM 55.0 °F 51.8 °F 89% 30.07 in 10.0 mi South 8.1 mph - N/A   Scattered Clouds
12:37 AM 55.2 °F 51.8 °F 88% 30.07 in 10.0 mi South 5.8 mph - N/A   Mostly Cloudy
12:57 AM 54.9 °F 51.8 °F 89% 30.07 in 10.0 mi SSW 4.6 mph - N/A   Scattered Clouds
1:17 AM 54.7 °F 51.8 °F 90% 30.07 in 10.0 mi South 5.8 mph - N/A   Clear
1:37 AM 55.8 °F 52.3 °F 88% 30.06 in 10.0 mi South 8.1 mph - N/A   Scattered Clouds
1:56 AM 55.9 °F 52.3 °F 88% 30.06 in 10.0 mi South 6.9 mph - N/A   Scattered Clouds
2:17 AM 55.8 °F 52.3 °F 88% 30.06 in 10.0 mi SSW 5.8 mph - N/A   Clear
2:37 AM 55.4 °F 52.3 °F 89% 30.06 in 10.0 mi South 8.1 mph - N/A   Clear
2:56 AM 55.9 °F 52.9 °F 89% 30.05 in 10.0 mi South 6.9 mph - N/A   Clear
3:17 AM 56.3 °F 53.1 °F 89% 30.05 in 10.0 mi South 5.8 mph - N/A   Clear
3:36 AM 56.5 °F 53.6 °F 90% 30.04 in 10.0 mi South 5.8 mph - N/A   Clear
3:57 AM 56.3 °F 53.6 °F 91% 30.04 in 10.0 mi SSW 4.6 mph - N/A   Clear
4:17 AM 56.8 °F 54.0 °F 90% 30.03 in 10.0 mi South 5.8 mph - N/A   Clear
4:37 AM 56.8 °F 53.8 °F 89% 30.03 in 10.0 mi SSW 5.8 mph - N/A   Scattered Clouds
4:57 AM 56.8 °F 54.0 °F 90% 30.02 in 10.0 mi South 6.9 mph - N/A   Scattered Clouds
5:17 AM 57.7 °F 54.5 °F 89% 30.02 in 10.0 mi South 9.2 mph - N/A   Scattered Clouds
5:37 AM 57.6 °F 54.5 °F 90% 30.01 in 10.0 mi South 5.8 mph - N/A   Clear
5:57 AM 57.2 °F 53.6 °F 88% 30.01 in 10.0 mi SSE 6.9 mph - N/A   Mostly Cloudy
6:45 AM 59.0 °F 55.4 °F 88% 30.01 in 10.0 mi South 11.5 mph - N/A   Overcast
7:45 AM 57.2 °F 55.4 °F 94% 30.00 in 10.0 mi South 8.1 mph - N/A   Overcast
8:45 AM 59.0 °F 57.2 °F 94% 29.99 in 10.0 mi South 10.4 mph - N/A   Overcast
9:15 AM 59.0 °F 57.2 °F 94% 29.99 in 10.0 mi South 11.5 mph - N/A   Overcast
9:45 AM 59.0 °F 57.2 °F 94% 29.98 in 10.0 mi South 11.5 mph - N/A   Overcast
10:45 AM 59.0 °F 57.2 °F 94% 29.96 in 10.0 mi SSE 13.8 mph 19.6 mph N/A   Overcast
11:50 AM 59.0 °F 59.0 °F 100% 29.94 in 3.0 mi South 12.7 mph - N/A Rain Rain
12:50 PM 60.8 °F 59.0 °F 94% 29.93 in 2.5 mi South 12.7 mph - N/A Rain Rain
1:45 PM 62.6 °F 60.8 °F 94% 29.92 in 7.0 mi South 10.4 mph - N/A Rain Rain
2:47 PM 62.6 °F 60.8 °F 94% 29.89 in 1.2 mi South 11.5 mph - N/A Rain Light Rain
3:45 PM 64.4 °F 62.6 °F 94% 29.87 in 3.0 mi South 12.7 mph - N/A   Overcast
4:50 PM 66.2 °F 64.4 °F 94% 29.84 in 1.8 mi South 13.8 mph - N/A   Overcast
5:50 PM 66.2 °F 64.4 °F 94% 29.82 in 2.5 mi South 13.8 mph - N/A   Overcast
6:55 PM 66.2 °F 66.2 °F 100% 29.82 in 1.5 mi South 10.4 mph - N/A   Overcast
7:50 PM 68.0 °F 66.2 °F 94% 29.84 in 0.8 mi SW 10.4 mph - N/A   Overcast
8:26 PM 66.2 °F 66.2 °F 100% 29.83 in 1.5 mi SSW 9.2 mph - N/A   Overcast
8:50 PM 66.2 °F 66.2 °F 100% 29.83 in 1.8 mi SW 6.9 mph - N/A   Overcast
9:45 PM 66.2 °F 66.2 °F 100% 29.82 in 2.5 mi South 9.2 mph - N/A Rain Light Rain
10:17 PM 67.1 °F 66.2 °F 97% 29.83 in 3.0 mi South 10.4 mph - N/A Rain Rain
10:36 PM 67.3 °F 66.2 °F 96% 29.83 in 3.0 mi SSW 10.4 mph - N/A Rain , Thunderstorm Light Thunderstorms and Rain
10:57 PM 66.6 °F 64.8 °F 94% 29.82 in 5.0 mi SW 9.2 mph - N/A Rain , Thunderstorm Rain
11:17 PM 66.2 °F 64.4 °F 94% 29.85 in 5.0 mi South 12.7 mph - N/A Rain , Thunderstorm Light Thunderstorms and Rain
11:37 PM 65.8 °F 64.4 °F 95% 29.83 in 5.0 mi SW 6.9 mph - N/A Rain , Thunderstorm Rain
11:57 PM 65.8 °F 64.4 °F 95% 29.82 in 7.0 mi South 6.9 mph - N/A Rain , Thunderstorm Light Thunderstorms and Rain